Date String (YYYY-MM-DD hh:mm:ss) UTC,Instrument flags,Ambient pressure (hPa),Sample flow (lpm),Bypass flow (lpm),Sample temperature (°C),Ambient temperature (°C),ASC tube jacket temperature (°C),LED temperature (°C),Box temperature (°C),Sample RH (%),Span deviation,Mass concentration (μg/m³),Mass concentration (μg/m³),Mass concentration (μg/m³)
DateTimeUTC,F1_M11,P_M11,Q1_M11,Q2_M11,T1_M11,T2_M11,T3_M11,T4_M11,T5_M11,U1_M11,ZSPAN_M11,X0_M11,X2_M11,X1_M11
2022-12-25 03:00:00,,0830.2,5.01,0.00,21.8,20.6,00.0,30.7,23.6,14.1,0000.0,0008.56,0005.26,0004.94
2022-12-25 03:01:00,,0830.3,4.97,0.00,21.8,20.6,00.0,30.7,23.6,14.1,0000.0,0008.61,0005.29,0004.95
2022-12-25 03:02:00,,0830.3,4.97,0.00,21.8,20.6,00.0,30.7,23.6,14.1,0000.0,0008.68,0005.32,0004.97
2022-12-25 03:03:00,,0830.2,5.02,0.00,21.8,20.6,00.0,30.7,23.6,14.1,0000.0,0008.72,0005.29,0004.95
2022-12-25 03:04:00,,0830.3,5.02,0.00,21.8,20.6,00.0,30.7,23.6,14.1,0000.0,0009.23,0005.21,0004.90
2022-12-25 03:05:00,,0830.2,5.01,0.00,21.8,20.6,00.0,30.7,23.6,14.0,0000.0,0008.95,0005.08,0004.80
2022-12-25 03:06:00,,0830.3,4.98,0.00,21.8,20.6,00.0,30.7,23.6,14.0,0000.0,0008.65,0004.85,0004.60
2022-12-25 03:07:00,,0830.3,4.98,0.00,21.8,20.6,00.0,30.7,23.6,14.0,0000.0,0008.46,0004.67,0004.43
2022-12-25 03:08:00,,0830.3,5.03,0.00,21.8,20.5,00.0,30.7,23.6,14.0,0000.0,0008.25,0004.47,0004.24
2022-12-25 03:09:00,,0830.4,5.01,0.00,21.8,20.5,00.0,30.7,23.6,14.0,0000.0,0007.81,0004.28,0004.06
2022-12-25 03:10:00,,0830.4,5.00,0.00,21.8,20.5,00.0,30.7,23.7,14.0,0000.0,0007.61,0004.13,0003.91
2022-12-25 03:11:00,,0830.5,4.97,0.00,21.8,20.5,00.0,30.7,23.6,14.0,0000.0,0007.50,0003.93,0003.74
2022-12-25 03:12:00,,0830.4,4.98,0.00,21.8,20.5,00.0,30.7,23.6,14.0,0000.0,0007.23,0003.73,0003.54
2022-12-25 03:13:00,,0830.5,5.02,0.00,21.8,20.5,00.0,30.7,23.6,14.0,0000.0,0006.80,0003.54,0003.38
2022-12-25 03:14:00,,0830.4,5.03,0.00,21.8,20.5,00.0,30.7,23.6,14.0,0000.0,0006.28,0003.42,0003.27
2022-12-25 03:15:00,,0830.4,4.99,0.00,21.8,20.5,00.0,30.7,23.6,14.0,0000.0,0004.72,0003.33,0003.19
2022-12-25 03:16:00,,0830.5,4.98,0.00,21.8,20.6,00.0,30.7,23.6,14.0,0000.0,0004.57,0003.25,0003.10
2022-12-25 03:17:00,,0830.5,5.00,0.00,21.8,20.6,00.0,30.7,23.6,14.0,0000.0,0004.49,0003.22,0003.07
2022-12-25 03:18:00,,0830.5,5.02,0.00,21.8,20.6,00.0,30.7,23.6,14.0,0000.0,0004.48,0003.19,0003.02
2022-12-25 03:19:00,,0830.5,5.02,0.00,21.8,20.6,00.0,30.7,23.7,14.0,0000.0,0004.50,0003.18,0002.97
2022-12-25 03:20:00,,0830.5,4.97,0.00,21.8,20.6,00.0,30.7,23.7,14.0,0000.0,0004.40,0003.15,0002.93
2022-12-25 03:21:00,,0830.5,4.99,0.00,21.8,20.6,00.0,30.7,23.6,14.0,0000.0,0004.03,0003.15,0002.94
2022-12-25 03:22:00,,0830.5,5.01,0.00,21.8,20.6,00.0,30.7,23.6,14.0,0000.0,0003.88,0003.17,0003.01
2022-12-25 03:23:00,,0830.5,5.03,0.00,21.8,20.6,00.0,30.7,23.6,14.0,0000.0,0004.25,0003.21,0003.09
2022-12-25 03:24:00,,0830.5,5.01,0.00,21.8,20.6,00.0,30.7,23.6,14.0,0000.0,0004.28,0003.24,0003.14
2022-12-25 03:25:00,,0830.5,4.99,0.00,21.8,20.6,00.0,30.7,23.6,14.1,0000.0,0004.33,0003.27,0003.16
2022-12-25 03:26:00,,0830.5,4.97,0.00,21.8,20.6,00.0,30.7,23.7,14.1,0000.0,0004.33,0003.29,0003.19
2022-12-25 03:27:00,,0830.6,4.99,0.00,21.8,20.6,00.0,30.7,23.6,14.2,0000.0,0004.34,0003.31,0003.22
2022-12-25 03:28:00,,0830.6,5.03,0.00,21.8,20.6,00.0,30.7,23.7,14.2,0000.0,0004.43,0003.34,0003.24
2022-12-25 03:29:00,,0830.5,5.02,0.00,21.8,20.6,00.0,30.7,23.7,14.1,0000.0,0004.45,0003.35,0003.24
2022-12-25 03:30:00,,0830.5,4.98,0.00,21.8,20.6,00.0,30.7,23.7,14.1,0000.0,0004.43,0003.35,0003.26
2022-12-25 03:31:00,,0830.5,4.97,0.00,21.8,20.6,00.0,30.7,23.6,14.1,0000.0,0004.38,0003.35,0003.27
2022-12-25 03:32:00,,0830.5,5.00,0.00,21.8,20.5,00.0,30.7,23.6,14.2,0000.0,0004.22,0003.33,0003.25
2022-12-25 03:33:00,,0830.5,5.03,0.00,21.8,20.5,00.0,30.7,23.6,14.2,0000.0,0004.06,0003.28,0003.22
2022-12-25 03:34:00,,0830.5,5.02,0.00,21.8,20.5,00.0,30.7,23.7,14.2,0000.0,0003.61,0003.24,0003.17
2022-12-25 03:35:00,,0830.5,5.02,0.00,21.8,21.0,00.0,30.6,23.8,14.1,0000.0,0003.63,0003.22,0003.14
2022-12-25 03:36:00,,0830.5,4.96,0.00,21.9,21.8,00.0,30.6,24.0,14.0,0000.0,0003.63,0003.21,0003.10
2022-12-25 03:37:00,,0830.5,5.01,0.00,22.0,22.0,00.0,30.7,24.1,14.0,0000.0,0003.62,0003.19,0003.06
2022-12-25 03:38:00,,0830.6,5.02,0.00,22.0,21.7,00.0,30.7,24.0,14.0,0000.0,0003.67,0003.17,0003.01
2022-12-25 03:39:00,,0830.5,5.01,0.00,22.0,21.4,00.0,30.8,24.0,14.0,0000.0,0003.65,0003.16,0002.99
2022-12-25 03:40:00,,0830.6,4.99,0.00,22.0,21.2,00.0,30.8,23.9,14.0,0000.0,0004.58,0003.19,0003.02
2022-12-25 03:41:00,,0830.6,4.97,0.00,22.0,21.1,00.0,30.8,23.9,14.0,0000.0,0004.77,0003.22,0003.05
2022-12-25 03:42:00,,0830.6,5.03,0.00,22.0,20.9,00.0,30.8,23.9,14.0,0000.0,0004.85,0003.26,0003.10
2022-12-25 03:43:00,,0830.6,5.01,0.00,22.0,20.9,00.0,30.8,23.9,14.0,0000.0,0004.87,0003.28,0003.14
2022-12-25 03:44:00,,0830.6,5.02,0.00,22.0,20.8,00.0,30.8,23.9,14.0,0000.0,0005.09,0003.38,0003.22
2022-12-25 03:45:00,,0830.6,4.96,0.00,22.0,20.8,00.0,30.8,23.9,14.0,0000.0,0005.45,0003.48,0003.32
2022-12-25 03:46:00,,0830.6,4.97,0.00,22.0,20.8,00.0,30.8,23.9,14.0,0000.0,0005.50,0003.54,0003.38
2022-12-25 03:47:00,,0830.6,5.02,0.00,22.0,20.7,00.0,30.8,23.9,14.0,0000.0,0005.54,0003.57,0003.42
2022-12-25 03:48:00,,0830.6,5.02,0.00,22.0,20.7,00.0,30.8,23.8,13.9,0000.0,0005.56,0003.58,0003.44
2022-12-25 03:49:00,,0830.6,5.01,0.00,22.0,20.7,00.0,30.8,23.8,13.9,0000.0,0005.52,0003.60,0003.47
2022-12-25 03:50:00,,0830.6,4.98,0.00,22.0,20.7,00.0,30.8,23.8,13.9,0000.0,0005.45,0003.59,0003.47
2022-12-25 03:51:00,,0830.6,4.98,0.00,22.0,20.6,00.0,30.8,23.8,13.9,0000.0,0004.49,0003.56,0003.44
2022-12-25 03:52:00,,0830.6,5.03,0.00,22.0,20.6,00.0,30.8,23.8,13.9,0000.0,0004.29,0003.50,0003.40
2022-12-25 03:53:00,,0830.6,5.02,0.00,22.0,20.6,00.0,30.8,23.8,14.0,0000.0,0004.27,0003.47,0003.36
2022-12-25 03:54:00,,0830.6,4.98,0.00,21.9,20.5,00.0,30.8,23.8,14.0,0000.0,0004.26,0003.45,0003.34
2022-12-25 03:55:00,,0830.5,4.97,0.00,21.9,20.6,00.0,30.8,23.8,14.1,0000.0,0004.18,0003.40,0003.28
2022-12-25 03:56:00,,0830.6,4.99,0.00,21.9,20.6,00.0,30.8,23.8,14.1,0000.0,0003.89,0003.32,0003.22
2022-12-25 03:57:00,,0830.5,5.01,0.00,21.9,20.6,00.0,30.8,23.7,14.1,0000.0,0003.89,0003.30,0003.20
2022-12-25 03:58:00,,0830.5,5.02,0.00,21.9,20.6,00.0,30.8,23.7,14.1,0000.0,0004.01,0003.35,0003.25
2022-12-25 03:59:00,,0830.4,4.98,0.00,21.9,20.6,00.0,30.8,23.7,14.1,0000.0,0004.06,0003.38,0003.28
